www.pogodaiklimat.ru

Погода и климат >> Архив погоды >> Фиджи >> Оно-и-Лау


ПОГОДА на Оно-и-Лау

  • Прогноз погоды на Оно-и-Лау
  • Монитор погоды на Оно-и-Лау

АРХИВ ПОГОДЫ на Оно-и-Лау

Время (UTC), дата Ветер
(напр.,м/с)
 
Видим.   Явления Облачность Т
(С)
Тd
(С)
f
(%)
Тe
(С)
Тes
(С)
Комфортность P
(гПа)
Po
(гПа)
Тmin
(С)
Tmax
(С)
R
(мм)
R24
(мм)
S
(см)
00 16.04 С 8 н/о н/о -38.5 -75.5 1 -56 -56 опасность
обморожения
1011.7 1007.6
03 16.04 СВ 9 н/о н/о -38.5 -76.3 1 -57 -57 опасность
обморожения
1011.1 1007.0
06 16.04 СВ 11 н/о н/о -38.5 -76.3 1 -59 -59 опасность
обморожения
1012.3 1008.2 1
09 16.04 С 12 н/о н/о -38.5 -76.3 1 -60 -60 опасность
обморожения
1014.3 1010.2
12 16.04 С 11 н/о н/о -38.5 -76.3 1 -59 -59 опасность
обморожения
1013.9 1009.8 1
15 16.04 СВ 10 н/о н/о -38.5 -76.3 1 -58 -58 опасность
обморожения
1013.7 1009.6
18 16.04 СВ 11 н/о н/о -38.5 -76.3 1 -59 -59 опасность
обморожения
1013.8 1009.7
21 16.04 С 10 н/о н/о -38.5 -76.3 1 -58 -58 опасность
обморожения
1015.7 1011.6
00 17.04 СВ 9 н/о н/о -38.5 -76.3 1 -58 -58 опасность
обморожения
1015.2 1011.1
00 18.04 С 9 н/о н/о -38.5 -75.5 1 -57 -57 опасность
обморожения
1015.9 1011.8 9
03 18.04 СВ 9 н/о н/о -38.5 -76.3 1 -57 -57 опасность
обморожения
1014.5 1010.4
06 18.04 СВ 10 н/о н/о -38.5 -76.3 1 -58 -58 опасность
обморожения
1015.0 1010.9
09 18.04 СВ 10 н/о н/о -38.5 -76.3 1 -58 -58 опасность
обморожения
1017.4 1013.3
12 18.04 С 9 н/о н/о -38.5 -76.3 1 -58 -58 опасность
обморожения
1017.3 1013.2
15 18.04 С 9 н/о н/о -38.5 -76.3 1 -57 -57 опасность
обморожения
1010.8 1006.7
18 18.04 СВ 2 н/о н/о -38.6 -76.3 1 -46 -46 опасность
обморожения
994.0 990.0
21 18.04 СВ 9 н/о н/о -38.5 -76.3 1 -58 -58 опасность
обморожения
1017.0 1012.9
00 19.04 СВ 8 н/о н/о -38.5 -75.5 1 -57 -57 опасность
обморожения
1016.8 1012.7
03 19.04 СВ 9 н/о н/о -38.5 -76.3 1 -58 -58 опасность
обморожения
1015.1 1011.0
06 19.04 СВ 10 н/о н/о -38.5 -76.3 1 -58 -58 опасность
обморожения
1015.4 1011.3
09 19.04 С 9 н/о н/о -38.5 -76.3 1 -58 -58 опасность
обморожения
1016.7 1012.6
12 19.04 С 9 н/о н/о -38.5 -76.3 1 -57 -57 опасность
обморожения
1016.9 1012.8
15 19.04 С 9 н/о н/о -38.5 -76.3 1 -58 -58 опасность
обморожения
1015.2 1011.1
12 20.04 С 9 н/о н/о -38.5 -76.3 1 -57 -57 опасность
обморожения
1017.1 1013.0
15 20.04 СВ 8 н/о н/о -38.5 -76.3 1 -57 -57 опасность
обморожения
1016.0 1011.9
18 20.04 СВ 8 н/о н/о -38.5 -76.3 1 -57 -57 опасность
обморожения
1015.9 1011.8
21 20.04 С 9 н/о н/о -38.5 -76.3 1 -57 -57 опасность
обморожения
1017.3 1013.2
00 21.04 С 9 н/о н/о -38.5 -75.5 1 -57 -57 опасность
обморожения
1016.7 1012.6 0.5
03 21.04 СВ 9 н/о н/о -38.5 -75.5 1 -57 -57 опасность
обморожения
1015.6 1011.5
06 21.04 С 9 н/о н/о -38.5 -76.3 1 -57 -57 опасность
обморожения
1016.5 1012.4
09 21.04 С 9 н/о н/о -38.5 -76.3 1 -58 -58 опасность
обморожения
1017.8 1013.7
12 21.04 С 9 н/о н/о -38.5 -76.3 1 -57 -57 опасность
обморожения
1017.6 1013.5
15 21.04 С 9 н/о н/о -38.5 -76.3 1 -58 -58 опасность
обморожения
1016.8 1012.7
18 21.04 С 8 н/о н/о -38.5 -76.3 1 -56 -56 опасность
обморожения
1017.0 1012.9
21 21.04 С 9 н/о н/о -38.5 -75.5 1 -58 -58 опасность
обморожения
1018.2 1014.1
00 22.04 С 8 н/о н/о -38.5 -75.5 1 -57 -57 опасность
обморожения
1017.8 1013.7
03 22.04 С 9 н/о н/о -38.5 -76.3 1 -57 -57 опасность
обморожения
1016.2 1012.1
06 22.04 С 9 н/о н/о -38.5 -76.3 1 -57 -57 опасность
обморожения
1016.7 1012.6
09 22.04 СВ 8 н/о н/о -38.5 -76.3 1 -57 -57 опасность
обморожения
1017.0 1012.9
12 22.04 С 7 н/о н/о -38.5 -76.3 1 -56 -56 опасность
обморожения
1016.1 1012.0
15 22.04 С 9 н/о н/о -38.5 -76.3 1 -57 -57 опасность
обморожения
1015.6 1011.5
18 22.04 С 9 н/о н/о -38.5 -76.3 1 -57 -57 опасность
обморожения
1015.6 1011.5
21 22.04 С 8 н/о н/о -38.5 -76.3 1 -56 -56 опасность
обморожения
1016.6 1012.5

 

Местоположение метеостанции Оно-и-Лау (Фиджи): широта -20.66 долгота -178.70 высота над уровнем моря 28 м.

В архиве по умолчанию представлена погода на Оно-и-Лау за последнюю неделю. Архивные данные за месяц целиком и за предыдущие месяцы, начиная с января 2011 года, Вы можете получить, выбрав интересующий диапазон дат из раскрывающегося списка и нажав кнопку "Ввод!".


*Определитесь, кто Вы:
робот инопланетянин человек

Внимание! Время в таблицах - всемирное. Для получения местного времени необходимо прибавить поправку, которая равна 12 ч.

Смотрите также архив погоды в соседних городах и на ближайших метеорологических станциях:

Погода на Лакемба (Фиджи) (270 км)
Погода в Аэропорту Фуаамоту (Тонга) (374 км)
Погода на Острове Хаапай (Тонга) (465 км)
Погода в Аэропорту Вавау (Тонга) (548 км)
Погода на Острове Ниуафооу (Тонга) (653 км)
Погода на Острове Футуна (Уоллис и Футуна) (709 км)
Погода в Аэропорту Матаахо (Тонга) (738 км)
Погода на Острове Увеа (Уоллис и Футуна) (867 км)
Погода в Ниуэ аэропорту (Кука Острова) (937 км)
Погода на Острове Рауль (Новая Зеландия) (959 км)

Пояснения к столбцам:

Ветер - указаны скорость ветра в м/с - средняя за 10 мин, порывы в срок и между сроками (в фигурных скобках) и направление, откуда дует ветер: С - северный, СВ - северо-восточный, В - восточный, ЮВ - юго-восточный, Ю - южный, ЮЗ - юго-западный, З - западный, СЗ - северо-западный.
Видимость - горизонтальная дальность видимости в метрах или километрах. При видимости от 1 до 10 км при отсутствии осадков обычно наблюдается дымка, при ухудшении видимости до 1 км и менее - туман. В сухую погоду видимость может ухудшаться дымом, пылью или мглою.
Явления - указаны атмосферные явления, наблюдавшиеся в срок или в последний час перед сроком; фигурными скобками обозначены явления, наблюдавшиеся между сроками (за 1-3 часа до срока); квадратными скобками обозначены град или гололедные отложения с указанием их диаметра в мм.
Облачность - указаны через наклонную черту общая и нижняя облачность в баллах и высота нижней границы облаков в метрах; квадратными скобками обозначены формы облаков: Ci - перистые, Cs - перисто-слоистые, Cc - перисто-кучевые, Ac - высококучевые, As - высокослоистые, Sc - слоисто-кучевые, Ns - слоисто-дождевые, Cu - кучевые, Cb - кучево-дождевые. Подробнее классификацию облаков см. в Атласе облаков (PDF).
T - Температура воздуха - температура, измеренная на высоте 2 м над землей.
Td - Температура точки росы - температура, при понижении до которой содержащийся в воздухе водяной пар достигнет насыщения.
f - Относительная влажность воздуха - влажноcть воздуха, измеренная на высоте 2 м над землей.
Te - Эффективная температура - температура, которую ощущает одетый по сезону человек в тени. Характеристика душности погоды. При расчете учитывается влияние влажности воздуха и скорости ветра на теплоощущения человека.
Tes - Эффективная температура на солнце - температура, которую ощущает человек, с поправкой на солнечный нагрев. Характеристика знойности погоды. Зависит от высоты солнца над горизонтом, облачности и скорости ветра. Ночью, в пасмурную погоду, а также при ветре 12 м/с и более поправка равна нулю.
P - Атмосферное давление - приведенное к уровню моря атмосферное давление.
Po - Атмосферное давление - измеренное на уровне метеостанции атмосферное давление.
Tmin - Минимальная температура - минимум температуры воздуха на высоте 2 м над землей.
Tmax - Максимальная температура - максимум температуры воздуха на высоте 2 м над землей.
R - Количество осадков - Количество выпавших осадков за период времени, мм. При наведении курсора мыши на число - период времени, за который выпало указанное количество осадков.
R24 - Количество осадков - Количество выпавших осадков за 24 часа, мм.
S - Снежный покров - Высота снежного покрова, см. При наведении курсора мыши на число - состояние снежного покрова и степень покрытия местности в баллах.